"Sample Date","Sample Time","Sample Value","Units","Flow Rate","Sample Interval","Number Channels","Micron Size 0","Counts/Channel 0","Micron Size 1","Counts/Channel 1","Micron Size 2","Counts/Channel 2","Micron Size 3","Counts/Channel 3","Micron Size 4","Counts/Channel 4","Micron Size 5","Counts/Channel 5","Micron Size 6","Counts/Channel 6","Micron Size 7","Counts/Channel 7","Micron Size 8","Counts/Channel 8","Micron Size 9","Counts/Channel 9","Micron Size 10","Counts/Channel 10","Micron Size 11","Counts/Channel 11","Micron Size 12","Counts/Channel 12","Micron Size 13","Counts/Channel 13","Micron Size 14","Counts/Channel 14","Micron Size 15","Counts/Channel 15","Micron Size 16","Counts/Channel 16","Micron Size 17","Counts/Channel 17","Micron Size 18","Counts/Channel 18","Micron Size 19","Counts/Channel 19","Micron Size 20","Counts/Channel 20","Micron Size 21","Counts/Channel 21","Micron Size 22","Counts/Channel 22","Micron Size 23","Counts/Channel 23","Micron Size 24","Counts/Channel 24","Micron Size 25","Counts/Channel 25","Micron Size 26","Counts/Channel 26","Micron Size 27","Counts/Channel 27","Micron Size 28","Counts/Channel 28","Micron Size 29","Counts/Channel 29","Micron Size 30","Counts/Channel 30","Micron Size 31","Counts/Channel 31"
"03/09/08","00:00:02",29674.000,"cc",28274.150,6.00,6,0.100,27088.000,0.200,1949.000,0.300,376.000,0.500,240.000,1.000,21.000,5.000,0
"03/09/08","00:00:08",29526.000,"cc",28278.609,6.00,6,0.100,27023.000,0.200,1969.000,0.300,316.000,0.500,191.000,1.000,27.000,5.000,0
"03/09/08","00:00:14",29524.000,"cc",28379.461,6.00,6,0.100,26899.000,0.200,2033.000,0.300,334.000,0.500,229.000,1.000,29.000,5.000,0
"03/09/08","00:00:20",29301.000,"cc",28303.533,6.00,6,0.100,26781.000,0.200,1977.000,0.300,309.000,0.500,212.000,1.000,22.000,5.000,0
"03/09/08","00:00:26",29662.000,"cc",28366.371,6.00,6,0.100,27017.000,0.200,2013.000,0.300,342.000,0.500,254.000,1.000,36.000,5.000,0
"03/09/08","00:00:32",29818.000,"cc",28242.191,6.00,6,0.100,27112.000,0.200,1981.000,0.300,399.000,0.500,281.000,1.000,45.000,5.000,0
"03/09/08","00:00:38",29746.000,"cc",28309.881,6.00,6,0.100,27153.000,0.200,1981.000,0.300,309.000,0.500,253.000,1.000,50.000,5.000,0
"03/09/08","00:00:44",29691.000,"cc",28360.063,6.00,6,0.100,27106.000,0.200,1931.000,0.300,348.000,0.500,263.000,1.000,43.000,5.000,0
"03/09/08","00:00:50",30341.000,"cc",28242.529,6.00,6,0.100,27663.000,0.200,2027.000,0.300,370.000,0.500,248.000,1.000,33.000,5.000,0
"03/09/08","00:00:56",30041.000,"cc",28344.012,6.00,6,0.100,27355.000,0.200,2018.000,0.300,374.000,0.500,256.000,1.000,38.000,5.000,0
"03/09/08","00:01:02",30112.000,"cc",28313.924,6.00,6,0.100,27373.000,0.200,2027.000,0.300,407.000,0.500,259.000,1.000,46.000,5.000,0
"03/09/08","00:01:08",30175.000,"cc",28333.965,6.00,6,0.100,27409.000,0.200,2076.000,0.300,373.000,0.500,281.000,1.000,36.000,5.000,0
"03/09/08","00:01:14",30087.000,"cc",28237.479,6.00,6,0.100,27419.000,0.200,2015.000,0.300,386.000,0.500,240.000,1.000,27.000,5.000,0
"03/09/08","00:01:20",30061.000,"cc",28319.404,6.00,6,0.100,27454.000,0.200,1942.000,0.300,366.000,0.500,265.000,1.000,34.000,5.000,0
"03/09/08","00:01:26",29951.000,"cc",28330.053,6.00,6,0.100,27274.000,0.200,2019.000,0.300,368.000,0.500,253.000,1.000,37.000,5.000,0
"03/09/08","00:01:32",30230.000,"cc",28324.037,6.00,6,0.100,27528.000,0.200,2011.000,0.300,390.000,0.500,255.000,1.000,46.000,5.000,0
"03/09/08","00:01:38",30042.000,"cc",28352.977,6.00,6,0.100,27448.000,0.200,1923.000,0.300,340.000,0.500,281.000,1.000,50.000,5.000,0
"03/09/08","00:01:44",30061.000,"cc",28294.713,6.00,6,0.100,27275.000,0.200,2096.000,0.300,374.000,0.500,273.000,1.000,43.000,5.000,0
"03/09/08","00:01:50",29963.000,"cc",28293.514,6.00,6,0.100,27289.000,0.200,1986.000,0.300,369.000,0.500,278.000,1.000,41.000,5.000,0
"03/09/08","00:01:56",30513.000,"cc",28331.260,6.00,6,0.100,27775.000,0.200,1986.000,0.300,403.000,0.500,305.000,1.000,44.000,5.000,0
"03/09/08","00:02:02",30238.000,"cc",28297.906,6.00,6,0.100,27633.000,0.200,1903.000,0.300,379.000,0.500,277.000,1.000,46.000,5.000,0
"03/09/08","00:02:08",30097.000,"cc",28329.059,6.00,6,0.100,27328.000,0.200,2044.000,0.300,386.000,0.500,291.000,1.000,48.000,5.000,0
"03/09/08","00:02:14",30190.000,"cc",28284.785,6.00,6,0.100,27469.000,0.200,2022.000,0.300,375.000,0.500,272.000,1.000,52.000,5.000,0
"03/09/08","00:02:20",30605.000,"cc",28271.107,6.00,6,0.100,27876.000,0.200,2023.000,0.300,382.000,0.500,274.000,1.000,50.000,5.000,0
"03/09/08","00:02:26",30686.000,"cc",28328.330,6.00,6,0.100,27907.000,0.200,2051.000,0.300,383.000,0.500,293.000,1.000,52.000,5.000,0
"03/09/08","00:02:32",30134.000,"cc",28354.789,6.00,6,0.100,27483.000,0.200,2013.000,0.300,363.000,0.500,241.000,1.000,34.000,5.000,0
"03/09/08","00:02:38",30351.000,"cc",28396.529,6.00,6,0.100,27600.000,0.200,1984.000,0.300,352.000,0.500,359.000,1.000,56.000,5.000,0
"03/09/08","00:02:44",30287.000,"cc",28190.791,6.00,6,0.100,27582.000,0.200,1993.000,0.300,380.000,0.500,295.000,1.000,37.000,5.000,0
"03/09/08","00:02:50",30653.000,"cc",28276.742,6.00,6,0.100,27951.000,0.200,1969.000,0.300,381.000,0.500,295.000,1.000,57.000,5.000,0
"03/09/08","00:02:56",30515.000,"cc",28384.580,6.00,6,0.100,27895.000,0.200,1954.000,0.300,357.000,0.500,258.000,1.000,51.000,5.000,0
"03/09/08","00:03:02",30365.000,"cc",28313.877,6.00,6,0.100,27663.000,0.200,2005.000,0.300,377.000,0.500,274.000,1.000,46.000,5.000,0
"03/09/08","00:03:08",30718.000,"cc",28290.541,6.00,6,0.100,28015.000,0.200,1959.000,0.300,395.000,0.500,305.000,1.000,44.000,5.000,0
"03/09/08","00:03:14",30803.000,"cc",28335.938,6.00,6,0.100,27984.000,0.200,2058.000,0.300,393.000,0.500,300.000,1.000,68.000,5.000,0
"03/09/08","00:03:20",30501.000,"cc",28307.523,6.00,6,0.100,27678.000,0.200,2031.000,0.300,417.000,0.500,328.000,1.000,47.000,5.000,0
"03/09/08","00:03:26",30579.000,"cc",28413.092,6.00,6,0.100,27785.000,0.200,2008.000,0.300,404.000,0.500,316.000,1.000,66.000,5.000,0
"03/09/08","00:03:32",30565.000,"cc",28287.164,6.00,6,0.100,27732.000,0.200,2096.000,0.300,388.000,0.500,309.000,1.000,40.000,5.000,0
"03/09/08","00:03:38",30359.000,"cc",28265.615,6.00,6,0.100,27583.000,0.200,2026.000,0.300,402.000,0.500,289.000,1.000,59.000,5.000,0
"03/09/08","00:03:44",30850.000,"cc",28336.191,6.00,6,0.100,27920.000,0.200,2120.000,0.300,424.000,0.500,328.000,1.000,58.000,5.000,0
"03/09/08","00:03:50",30729.000,"cc",28313.408,6.00,6,0.100,27890.000,0.200,2054.000,0.300,408.000,0.500,323.000,1.000,54.000,5.000,0
"03/09/08","00:03:56",30504.000,"cc",28377.742,6.00,6,0.100,27697.000,0.200,2042.000,0.300,390.000,0.500,308.000,1.000,67.000,5.000,0
"03/09/08","00:04:02",30419.000,"cc",28265.447,6.00,6,0.100,27681.000,0.200,2037.000,0.300,332.000,0.500,316.000,1.000,53.000,5.000,0
"03/09/08","00:04:08",30633.000,"cc",28333.602,6.00,6,0.100,27902.000,0.200,2001.000,0.300,375.000,0.500,309.000,1.000,46.000,5.000,0
"03/09/08","00:04:14",30714.000,"cc",28331.688,6.00,6,0.100,27945.000,0.200,2053.000,0.300,386.000,0.500,288.000,1.000,42.000,5.000,0
"03/09/08","00:04:20",30619.000,"cc",28262.357,6.00,6,0.100,27814.000,0.200,2118.000,0.300,357.000,0.500,285.000,1.000,45.000,5.000,0
"03/09/08","00:04:26",30892.000,"cc",28322.826,6.00,6,0.100,27970.000,0.200,2155.000,0.300,425.000,0.500,290.000,1.000,52.000,5.000,0
"03/09/08","00:04:32",30980.000,"cc",28350.953,6.00,6,0.100,28120.000,0.200,2072.000,0.300,403.000,0.500,332.000,1.000,53.000,5.000,0
"03/09/08","00:04:38",31035.000,"cc",28312.436,6.00,6,0.100,28106.000,0.200,2148.000,0.300,401.000,0.500,322.000,1.000,58.000,5.000,0
"03/09/08","00:04:44",30681.000,"cc",28260.162,6.00,6,0.100,27882.000,0.200,2073.000,0.300,375.000,0.500,298.000,1.000,53.000,5.000,0
"03/09/08","00:04:50",30890.000,"cc",28306.397,6.00,6,0.100,28018.000,0.200,2114.000,0.300,427.000,0.500,278.000,1.000,53.000,5.000,0
"03/09/08","00:04:56",31032.000,"cc",28307.723,6.00,6,0.100,28188.000,0.200,2093.000,0.300,401.000,0.500,305.000,1.000,45.000,5.000,0
"03/09/08","00:05:02",30599.000,"cc",28306.889,6.00,6,0.100,27703.000,0.200,2096.000,0.300,429.000,0.500,329.000,1.000,42.000,5.000,0
"03/09/08","00:05:08",30766.000,"cc",28372.215,6.00,6,0.100,27873.000,0.200,2122.000,0.300,412.000,0.500,309.000,1.000,50.000,5.000,0
"03/09/08","00:05:14",30683.000,"cc",28359.131,6.00,6,0.100,27894.000,0.200,2034.000,0.300,383.000,0.500,317.000,1.000,55.000,5.000,0
"03/09/08","00:05:20",30524.000,"cc",28202.135,6.00,6,0.100,27524.000,0.200,2182.000,0.300,418.000,0.500,336.000,1.000,64.000,5.000,0
"03/09/08","00:05:26",30927.000,"cc",28225.668,6.00,6,0.100,27986.000,0.200,2141.000,0.300,413.000,0.500,326.000,1.000,61.000,5.000,0
"03/09/08","00:05:32",30841.000,"cc",28240.356,6.00,6,0.100,28038.000,0.200,2092.000,0.300,392.000,0.500,274.000,1.000,45.000,5.000,0
"03/09/08","00:05:38",31162.000,"cc",28286.930,6.00,6,0.100,28256.000,0.200,2117.000,0.300,405.000,0.500,329.000,1.000,55.000,5.000,0
"03/09/08","00:05:44",30669.000,"cc",28334.715,6.00,6,0.100,27828.000,0.200,2111.000,0.300,382.000,0.500,296.000,1.000,52.000,5.000,0
"03/09/08","00:05:50",31123.000,"cc",28275.818,6.00,6,0.100,28205.000,0.200,2131.000,0.300,408.000,0.500,328.000,1.000,51.000,5.000,0
"03/09/08","00:05:56",31009.000,"cc",28302.510,6.00,6,0.100,28209.000,0.200,2123.000,0.300,368.000,0.500,261.000,1.000,48.000,5.000,0
"03/09/08","00:06:02",31233.000,"cc",28344.422,6.00,6,0.100,28289.000,0.200,2181.000,0.300,419.000,0.500,297.000,1.000,47.000,5.000,0
"03/09/08","00:06:08",31283.000,"cc",28340.877,6.00,6,0.100,28433.000,0.200,2107.000,0.300,374.000,0.500,312.000,1.000,57.000,5.000,0
"03/09/08","00:06:14",31010.000,"cc",28324.473,6.00,6,0.100,28082.000,0.200,2111.000,0.300,421.000,0.500,348.000,1.000,48.000,5.000,0
"03/09/08","00:06:20",30998.000,"cc",28285.397,6.00,6,0.100,28033.000,0.200,2227.000,0.300,375.000,0.500,318.000,1.000,45.000,5.000,0
"03/09/08","00:06:26",31049.000,"cc",28414.713,6.00,6,0.100,28145.000,0.200,2141.000,0.300,390.000,0.500,315.000,1.000,58.000,5.000,0
"03/09/08","00:06:32",30789.000,"cc",28269.629,6.00,6,0.100,27836.000,0.200,2161.000,0.300,401.000,0.500,335.000,1.000,56.000,5.000,0
"03/09/08","00:06:38",30762.000,"cc",28275.182,6.00,6,0.100,27804.000,0.200,2175.000,0.300,399.000,0.500,313.000,1.000,71.000,5.000,0
"03/09/08","00:06:44",30553.000,"cc",28317.236,6.00,6,0.100,27744.000,0.200,2085.000,0.300,360.000,0.500,303.000,1.000,61.000,5.000,0
"03/09/08","00:06:50",30533.000,"cc",28319.854,6.00,6,0.100,27734.000,0.200,2065.000,0.300,371.000,0.500,306.000,1.000,57.000,5.000,0
"03/09/08","00:06:56",31319.000,"cc",28312.320,6.00,6,0.100,28397.000,0.200,2097.000,0.300,407.000,0.500,349.000,1.000,69.000,5.000,0
"03/09/08","00:07:02",30935.000,"cc",28272.957,6.00,6,0.100,27926.000,0.200,2216.000,0.300,414.000,0.500,320.000,1.000,59.000,5.000,0
"03/09/08","00:07:08",31382.000,"cc",28413.453,6.00,6,0.100,28398.000,0.200,2208.000,0.300,390.000,0.500,323.000,1.000,63.000,5.000,0
"03/09/08","00:07:14",30438.000,"cc",28297.598,6.00,6,0.100,27555.000,0.200,2063.000,0.300,442.000,0.500,323.000,1.000,55.000,5.000,0
"03/09/08","00:07:20",31113.000,"cc",28366.619,6.00,6,0.100,28155.000,0.200,2163.000,0.300,424.000,0.500,312.000,1.000,59.000,5.000,0
"03/09/08","00:07:26",31084.000,"cc",28260.879,6.00,6,0.100,28162.000,0.200,2125.000,0.300,419.000,0.500,314.000,1.000,64.000,5.000,0
"03/09/08","00:07:32",30662.000,"cc",28338.131,6.00,6,0.100,27665.000,0.200,2183.000,0.300,425.000,0.500,324.000,1.000,65.000,5.000,0
"03/09/08","00:07:38",31105.000,"cc",28357.420,6.00,6,0.100,27961.000,0.200,2284.000,0.300,466.000,0.500,335.000,1.000,59.000,5.000,0
"03/09/08","00:07:44",31136.000,"cc",28273.715,6.00,6,0.100,28173.000,0.200,2143.000,0.300,443.000,0.500,319.000,1.000,58.000,5.000,0
"03/09/08","00:07:50",31042.000,"cc",28306.277,6.00,6,0.100,27970.000,0.200,2262.000,0.300,388.000,0.500,354.000,1.000,68.000,5.000,0
"03/09/08","00:07:56",31446.000,"cc",28352.020,6.00,6,0.100,28410.000,0.200,2168.000,0.300,424.000,0.500,380.000,1.000,64.000,5.000,0
"03/09/08","00:08:02",30904.000,"cc",28351.615,6.00,6,0.100,27751.000,0.200,2259.000,0.300,462.000,0.500,363.000,1.000,69.000,5.000,0
"03/09/08","00:08:08",30871.000,"cc",28351.152,6.00,6,0.100,27912.000,0.200,2125.000,0.300,414.000,0.500,358.000,1.000,62.000,5.000,0
"03/09/08","00:08:14",30625.000,"cc",28276.318,6.00,6,0.100,27782.000,0.200,2078.000,0.300,410.000,0.500,298.000,1.000,57.000,5.000,0
"03/09/08","00:08:20",31076.000,"cc",28404.783,6.00,6,0.100,28162.000,0.200,2093.000,0.300,413.000,0.500,341.000,1.000,67.000,5.000,0
"03/09/08","00:08:26",30855.000,"cc",28222.022,6.00,6,0.100,27918.000,0.200,2139.000,0.300,396.000,0.500,329.000,1.000,73.000,5.000,0
"03/09/08","00:08:32",30744.000,"cc",28298.902,6.00,6,0.100,27734.000,0.200,2186.000,0.300,426.000,0.500,334.000,1.000,64.000,5.000,0
"03/09/08","00:08:38",31210.000,"cc",28388.611,6.00,6,0.100,28221.000,0.200,2115.000,0.300,440.000,0.500,365.000,1.000,69.000,5.000,0
"03/09/08","00:08:44",31028.000,"cc",28342.272,6.00,6,0.100,27999.000,0.200,2203.000,0.300,406.000,0.500,347.000,1.000,73.000,5.000,0
"03/09/08","00:08:50",31202.000,"cc",28341.215,6.00,6,0.100,28221.000,0.200,2087.000,0.300,419.000,0.500,395.000,1.000,80.000,5.000,0
"03/09/08","00:08:56",30796.000,"cc",28258.699,6.00,6,0.100,27924.000,0.200,2026.000,0.300,424.000,0.500,343.000,1.000,79.000,5.000,0
"03/09/08","00:09:02",30719.000,"cc",28277.871,6.00,6,0.100,27745.000,0.200,2168.000,0.300,393.000,0.500,340.000,1.000,73.000,5.000,0
"03/09/08","00:09:08",31078.000,"cc",28391.092,6.00,6,0.100,28098.000,0.200,2091.000,0.300,445.000,0.500,373.000,1.000,71.000,5.000,0
"03/09/08","00:09:14",31198.000,"cc",28267.963,6.00,6,0.100,28169.000,0.200,2175.000,0.300,435.000,0.500,344.000,1.000,75.000,5.000,0
"03/09/08","00:09:20",31030.000,"cc",28318.324,6.00,6,0.100,28099.000,0.200,2083.000,0.300,434.000,0.500,349.000,1.000,65.000,5.000,0
"03/09/08","00:09:26",31519.000,"cc",28338.238,6.00,6,0.100,28391.000,0.200,2254.000,0.300,431.000,0.500,376.000,1.000,67.000,5.000,0
"03/09/08","00:09:32",31176.000,"cc",28195.303,6.00,6,0.100,28092.000,0.200,2202.000,0.300,465.000,0.500,351.000,1.000,66.000,5.000,0
"03/09/08","00:09:38",31187.000,"cc",28303.838,6.00,6,0.100,28139.000,0.200,2186.000,0.300,426.000,0.500,365.000,1.000,71.000,5.000,0
"03/09/08","00:09:44",31494.000,"cc",28464.930,6.00,6,0.100,28286.000,0.200,2244.000,0.300,472.000,0.500,406.000,1.000,86.000,5.000,0
"03/09/08","00:09:50",30780.000,"cc",28407.719,6.00,6,0.100,27669.000,0.200,2162.000,0.300,420.000,0.500,409.000,1.000,120.000,5.000,0
"03/09/08","00:09:56",31009.000,"cc",28312.223,6.00,6,0.100,27874.000,0.200,2177.000,0.300,423.000,0.500,441.000,1.000,94.000,5.000,0
"03/09/08","00:10:02",31042.000,"cc",28286.502,6.00,6,0.100,28009.000,0.200,2055.000,0.300,422.000,0.500,437.000,1.000,119.000,5.000,0
"03/09/08","00:10:08",30403.000,"cc",28223.590,6.00,6,0.100,27535.000,0.200,2058.000,0.300,374.000,0.500,337.000,1.000,99.000,5.000,0
"03/09/08","00:10:14",31187.000,"cc",28304.004,6.00,6,0.100,28304.000,0.200,2098.000,0.300,363.000,0.500,348.000,1.000,74.000,5.000,0
"03/09/08","00:10:20",30909.000,"cc",28279.637,6.00,6,0.100,27966.000,0.200,2094.000,0.300,393.000,0.500,371.000,1.000,85.000,5.000,0
"03/09/08","00:10:26",31102.000,"cc",28330.289,6.00,6,0.100,28012.000,0.200,2206.000,0.300,459.000,0.500,356.000,1.000,69.000,5.000,0
"03/09/08","00:10:32",31092.000,"cc",28413.629,6.00,6,0.100,27989.000,0.200,2149.000,0.300,441.000,0.500,416.000,1.000,97.000,5.000,0
"03/09/08","00:10:38",31392.000,"cc",28392.787,6.00,6,0.100,28195.000,0.200,2254.000,0.300,467.000,0.500,386.000,1.000,90.000,5.000,0
"03/09/08","00:10:44",31445.000,"cc",28225.602,6.00,6,0.100,28291.000,0.200,2253.000,0.300,463.000,0.500,350.000,1.000,88.000,5.000,0
"03/09/08","00:10:50",31178.000,"cc",28338.512,6.00,6,0.100,28124.000,0.200,2176.000,0.300,430.000,0.500,362.000,1.000,86.000,5.000,0
"03/09/08","00:10:56",31517.000,"cc",28337.996,6.00,6,0.100,28271.000,0.200,2279.000,0.300,454.000,0.500,427.000,1.000,86.000,5.000,0
"03/09/08","00:11:02",31385.000,"cc",28398.902,6.00,6,0.100,28132.000,0.200,2214.000,0.300,494.000,0.500,426.000,1.000,119.000,5.000,0
"03/09/08","00:11:08",31157.000,"cc",28325.787,6.00,6,0.100,27887.000,0.200,2273.000,0.300,493.000,0.500,396.000,1.000,108.000,5.000,0
"03/09/08","00:11:14",31345.000,"cc",28330.906,6.00,6,0.100,28140.000,0.200,2261.000,0.300,424.000,0.500,408.000,1.000,112.000,5.000,0
"03/09/08","00:11:20",31543.000,"cc",28244.268,6.00,6,0.100,28259.000,0.200,2238.000,0.300,510.000,0.500,445.000,1.000,91.000,5.000,0
"03/09/08","00:11:26",31632.000,"cc",28319.967,6.00,6,0.100,28410.000,0.200,2290.000,0.300,428.000,0.500,426.000,1.000,78.000,5.000,0
"03/09/08","00:11:32",31305.000,"cc",28306.705,6.00,6,0.100,28093.000,0.200,2313.000,0.300,409.000,0.500,398.000,1.000,92.000,5.000,0
"03/09/08","00:11:38",31665.000,"cc",28400.934,6.00,6,0.100,28362.000,0.200,2291.000,0.300,485.000,0.500,423.000,1.000,104.000,5.000,0
"03/09/08","00:11:44",30921.000,"cc",28315.908,6.00,6,0.100,27784.000,0.200,2198.000,0.300,454.000,0.500,378.000,1.000,107.000,5.000,0
"03/09/08","00:11:50",31131.000,"cc",28307.963,6.00,6,0.100,27947.000,0.200,2168.000,0.300,457.000,0.500,453.000,1.000,106.000,5.000,0
"03/09/08","00:11:56",31401.000,"cc",28272.166,6.00,6,0.100,28184.000,0.200,2228.000,0.300,456.000,0.500,430.000,1.000,103.000,5.000,0
"03/09/08","00:12:02",31204.000,"cc",28387.201,6.00,6,0.100,28010.000,0.200,2233.000,0.300,426.000,0.500,437.000,1.000,98.000,5.000,0
"03/09/08","00:12:08",31132.000,"cc",28216.791,6.00,6,0.100,27965.000,0.200,2183.000,0.300,446.000,0.500,419.000,1.000,119.000,5.000,0
"03/09/08","00:12:14",30756.000,"cc",28316.273,6.00,6,0.100,27740.000,0.200,2113.000,0.300,424.000,0.500,382.000,1.000,97.000,5.000,0
"03/09/08","00:12:20",31461.000,"cc",28380.932,6.00,6,0.100,28312.000,0.200,2172.000,0.300,439.000,0.500,436.000,1.000,102.000,5.000,0
"03/09/08","00:12:26",31330.000,"cc",28334.570,6.00,6,0.100,28234.000,0.200,2188.000,0.300,391.000,0.500,405.000,1.000,112.000,5.000,0
"03/09/08","00:12:32",31147.000,"cc",28354.129,6.00,6,0.100,27960.000,0.200,2223.000,0.300,455.000,0.500,398.000,1.000,111.000,5.000,0
"03/09/08","00:12:38",31172.000,"cc",28293.373,6.00,6,0.100,28024.000,0.200,2212.000,0.300,428.000,0.500,415.000,1.000,93.000,5.000,0
"03/09/08","00:12:44",30877.000,"cc",28293.141,6.00,6,0.100,27820.000,0.200,2167.000,0.300,417.000,0.500,388.000,1.000,85.000,5.000,0
"03/09/08","00:12:50",31194.000,"cc",28330.963,6.00,6,0.100,27990.000,0.200,2199.000,0.300,460.000,0.500,431.000,1.000,114.000,5.000,0
"03/09/08","00:12:56",31257.000,"cc",28323.676,6.00,6,0.100,28132.000,0.200,2207.000,0.300,433.000,0.500,406.000,1.000,79.000,5.000,0
"03/09/08","00:13:02",30911.000,"cc",28276.793,6.00,6,0.100,27758.000,0.200,2233.000,0.300,410.000,0.500,407.000,1.000,103.000,5.000,0
"03/09/08","00:13:08",31278.000,"cc",28367.125,6.00,6,0.100,28018.000,0.200,2245.000,0.300,469.000,0.500,446.000,1.000,100.000,5.000,0
"03/09/08","00:13:14",31178.000,"cc",28281.414,6.00,6,0.100,28013.000,0.200,2206.000,0.300,463.000,0.500,405.000,1.000,91.000,5.000,0
"03/09/08","00:13:20",30948.000,"cc",28341.645,6.00,6,0.100,27824.000,0.200,2232.000,0.300,401.000,0.500,377.000,1.000,114.000,5.000,0
"03/09/08","00:13:26",31317.000,"cc",28335.348,6.00,6,0.100,28185.000,0.200,2150.000,0.300,435.000,0.500,428.000,1.000,119.000,5.000,0
"03/09/08","00:13:32",30940.000,"cc",28237.969,6.00,6,0.100,27929.000,0.200,2146.000,0.300,370.000,0.500,407.000,1.000,88.000,5.000,0
"03/09/08","00:13:38",31467.000,"cc",28379.725,6.00,6,0.100,28311.000,0.200,2214.000,0.300,438.000,0.500,397.000,1.000,107.000,5.000,0
"03/09/08","00:13:44",30846.000,"cc",28282.924,6.00,6,0.100,27851.000,0.200,2133.000,0.300,401.000,0.500,383.000,1.000,78.000,5.000,0
"03/09/08","00:13:50",31238.000,"cc",28379.678,6.00,6,0.100,28057.000,0.200,2210.000,0.300,424.000,0.500,444.000,1.000,103.000,5.000,0
"03/09/08","00:13:56",31250.000,"cc",28349.850,6.00,6,0.100,27942.000,0.200,2345.000,0.300,455.000,0.500,408.000,1.000,100.000,5.000,0
"03/09/08","00:14:02",30968.000,"cc",28154.156,6.00,6,0.100,27817.000,0.200,2228.000,0.300,419.000,0.500,410.000,1.000,94.000,5.000,0
"03/09/08","00:14:08",31306.000,"cc",28264.307,6.00,6,0.100,28056.000,0.200,2321.000,0.300,389.000,0.500,448.000,1.000,92.000,5.000,0
"03/09/08","00:14:14",30946.000,"cc",28313.818,6.00,6,0.100,27720.000,0.200,2210.000,0.300,482.000,0.500,448.000,1.000,86.000,5.000,0
"03/09/08","00:14:20",31196.000,"cc",28324.703,6.00,6,0.100,27995.000,0.200,2248.000,0.300,431.000,0.500,432.000,1.000,90.000,5.000,0
"03/09/08","00:14:26",31254.000,"cc",28484.072,6.00,6,0.100,28147.000,0.200,2195.000,0.300,412.000,0.500,417.000,1.000,83.000,5.000,0
"03/09/08","00:14:32",31111.000,"cc",28278.797,6.00,6,0.100,28008.000,0.200,2213.000,0.300,418.000,0.500,371.000,1.000,101.000,5.000,0
"03/09/08","00:14:38",31255.000,"cc",28170.356,6.00,6,0.100,28031.000,0.200,2276.000,0.300,455.000,0.500,384.000,1.000,109.000,5.000,0
"03/09/08","00:14:44",31099.000,"cc",28228.238,6.00,6,0.100,27945.000,0.200,2286.000,0.300,422.000,0.500,354.000,1.000,92.000,5.000,0
"03/09/08","00:14:50",31132.000,"cc",28356.162,6.00,6,0.100,28031.000,0.200,2161.000,0.300,438.000,0.500,423.000,1.000,79.000,5.000,0
"03/09/08","00:14:56",31423.000,"cc",28450.180,6.00,6,0.100,28203.000,0.200,2296.000,0.300,478.000,0.500,364.000,1.000,82.000,5.000,0
"03/09/08","00:15:02",31349.000,"cc",28262.772,6.00,6,0.100,28149.000,0.200,2320.000,0.300,407.000,0.500,377.000,1.000,96.000,5.000,0
"03/09/08","00:15:08",31400.000,"cc",28319.580,6.00,6,0.100,28182.000,0.200,2295.000,0.300,433.000,0.500,407.000,1.000,83.000,5.000,0
"03/09/08","00:15:14",31459.000,"cc",28349.059,6.00,6,0.100,28202.000,0.200,2325.000,0.300,447.000,0.500,381.000,1.000,104.000,5.000,0
"03/09/08","00:15:20",31714.000,"cc",28315.606,6.00,6,0.100,28414.000,0.200,2350.000,0.300,441.000,0.500,426.000,1.000,83.000,5.000,0
"03/09/08","00:15:26",31731.000,"cc",28305.606,6.00,6,0.100,28435.000,0.200,2285.000,0.300,452.000,0.500,452.000,1.000,107.000,5.000,0
"03/09/08","00:15:32",31655.000,"cc",28341.324,6.00,6,0.100,28413.000,0.200,2304.000,0.300,437.000,0.500,420.000,1.000,81.000,5.000,0
"03/09/08","00:15:38",31945.000,"cc",28314.232,6.00,6,0.100,28638.000,0.200,2379.000,0.300,453.000,0.500,388.000,1.000,87.000,5.000,0
"03/09/08","00:15:44",31121.000,"cc",28307.074,6.00,6,0.100,27857.000,0.200,2331.000,0.300,421.000,0.500,432.000,1.000,80.000,5.000,0
"03/09/08","00:15:50",31664.000,"cc",28329.459,6.00,6,0.100,28403.000,0.200,2321.000,0.300,460.000,0.500,389.000,1.000,91.000,5.000,0
"03/09/08","00:15:56",31390.000,"cc",28259.469,6.00,6,0.100,28130.000,0.200,2352.000,0.300,430.000,0.500,395.000,1.000,83.000,5.000,0
"03/09/08","00:16:02",31326.000,"cc",28341.611,6.00,6,0.100,28178.000,0.200,2260.000,0.300,413.000,0.500,388.000,1.000,87.000,5.000,0
"03/09/08","00:16:08",31451.000,"cc",28373.914,6.00,6,0.100,28134.000,0.200,2436.000,0.300,432.000,0.500,368.000,1.000,81.000,5.000,0
"03/09/08","00:16:14",31399.000,"cc",28297.654,6.00,6,0.100,28104.000,0.200,2375.000,0.300,457.000,0.500,370.000,1.000,93.000,5.000,0
"03/09/08","00:16:20",31476.000,"cc",28271.582,6.00,6,0.100,28142.000,0.200,2391.000,0.300,450.000,0.500,412.000,1.000,81.000,5.000,0
"03/09/08","00:16:26",31488.000,"cc",28261.121,6.00,6,0.100,28286.000,0.200,2290.000,0.300,421.000,0.500,402.000,1.000,89.000,5.000,0
"03/09/08","00:16:32",31960.000,"cc",28434.770,6.00,6,0.100,28616.000,0.200,2394.000,0.300,462.000,0.500,416.000,1.000,72.000,5.000,0
"03/09/08","00:16:38",31432.000,"cc",28364.701,6.00,6,0.100,28152.000,0.200,2279.000,0.300,452.000,0.500,462.000,1.000,87.000,5.000,0
"03/09/08","00:16:44",31745.000,"cc",28304.315,6.00,6,0.100,28376.000,0.200,2358.000,0.300,476.000,0.500,423.000,1.000,112.000,5.000,0